User: anonymous   Login
Location: Unspecified
(0.0000°N, 0.0000°E)
Time: 09:19:35
(UTC+02:00)
Language:

Cosmos 1242 Rocket - Orbit

View from above orbital plane
View from above orbital plane
View from above satellite
View from above satellite

Ground track
Ground track

The orbit data is extracted from the following two-line orbital elements,

1 12155U 81008B   17083.92263375 +.00001459 +00000-0 +47938-4 0  9991
2 12155 081.1646 166.3537 0028827 273.7995 085.9946 15.30481359947732
Epoch (UTC): 24 March 2017 22:08:35
Eccentricity: 0.0028827
inclination: 81.1646°
perigee height: 454 km
apogee height: 494 km
right ascension of ascending node: 166.3537°
argument of perigee: 273.7995°
revolutions per day: 15.30481359
mean anomaly at epoch: 85.9946°
orbit number at epoch: 94773

The dashed part of the orbit path shows where the satellite is in the earth's shadow,  

DLR